Weather History for Northeast Philadelphia, PA

Change the Weather History Date:

Wednesday, October 17, 2012

  Actual Average Record
Temperature  
Mean Temperature 50 °F -  
Max Temperature 62 °F 62 °F 80 °F (1996)
Min Temperature 39 °F 43 °F 39 °F (2012)
Degree Days  
Heating Degree Days 14    
Moisture  
Dew Point 39 °F    
Average Humidity 68    
Maximum Humidity 89    
Minimum Humidity 43    
Precipitation  
Precipitation 0.00 in - - ()
Sea Level Pressure  
Sea Level Pressure 29.99 in    
Wind  
Wind Speed 1 mph (South)    
Max Wind Speed 6 mph    
Max Gust Speed -    
Visibility 10 miles    
Events      
Averages and records for this station are not official NWS values.
T = Trace of Precipitation, MM = Missing Value Source: NWS Daily Summary

Daily Weather History Graph

Daily Weather History Graph

Search for Another Location

Airport:

Trip Planner

Search our weather history database for the weather conditions in past years. The results will help you decide how hot, cold, wet, or windy it might be!

Date:

Astronomy

Oct. 17, 2012 Rise Set
Actual Time 7:13 AM EDT 6:16 PM EDT
Civil Twilight 6:45 AM EDT 6:44 PM EDT
Nautical Twilight 6:14 AM EDT 7:15 PM EDT
Astronomical Twilight 5:42 AM EDT 7:46 PM EDT
Moon 9:44 AM EDT (10/17) 7:50 PM EDT (10/17)
Length of Visible Light 11h 58m
Length of Day
11h 03m
Waxing Crescent, 7% of the Moon is Illuminated
Oct 17
Waxing Crescent
Oct 21
First Quarter
Oct 29
Full
Nov 6
Last Quarter
Nov 13
New

Hourly Weather History & Observations

Time (EDT) Temp. Dew Point Humidity Pressure Visibility Wind Dir Wind Speed Gust Speed Precip Events Conditions
12:54 AM 45.0 °F 39.0 °F 80% 29.94 in 10.0 mi Calm Calm - N/A   Clear
1:54 AM 44.1 °F 39.0 °F 82% 29.95 in 10.0 mi Calm Calm - N/A   Clear
2:54 AM 42.1 °F 39.0 °F 89% 29.96 in 10.0 mi Calm Calm - N/A   Clear
3:54 AM 41.0 °F 36.0 °F 82% 29.96 in 10.0 mi Calm Calm - N/A   Clear
4:54 AM 41.0 °F 37.9 °F 89% 29.97 in 10.0 mi Calm Calm - N/A   Clear
5:54 AM 39.9 °F 37.0 °F 89% 29.99 in 10.0 mi Calm Calm - N/A   Clear
6:54 AM 39.9 °F 36.0 °F 86% 30.00 in 10.0 mi Calm Calm - N/A   Clear
7:54 AM 43.0 °F 37.9 °F 82% 30.01 in 10.0 mi Calm Calm - N/A   Clear
8:54 AM 50.0 °F 43.0 °F 77% 30.04 in 10.0 mi Calm Calm - N/A   Clear
9:54 AM 53.1 °F 39.0 °F 59% 30.04 in 10.0 mi Calm Calm - N/A   Clear
10:54 AM 55.9 °F 39.0 °F 53% 30.04 in 10.0 mi Calm Calm - N/A   Clear
11:54 AM 57.0 °F 39.0 °F 51% 30.03 in 10.0 mi SSE 4.6 mph - N/A   Clear
12:54 PM 57.2 °F 37.4 °F 48% 30.01 in 10.0 mi SW 4.6 mph - N/A   Clear
1:54 PM 60.1 °F 39.0 °F 46% 29.99 in 10.0 mi SE 4.6 mph - N/A   Clear
2:54 PM 61.0 °F 39.9 °F 46% 29.97 in 10.0 mi SSW 5.8 mph - N/A   Clear
3:54 PM 61.0 °F 39.9 °F 46% 29.96 in 10.0 mi South 3.5 mph - N/A   Clear
4:54 PM 62.1 °F 39.0 °F 43% 29.96 in 10.0 mi SSE 5.8 mph - N/A   Clear
5:54 PM 59.0 °F 39.0 °F 48% 29.96 in 10.0 mi Variable 3.5 mph - N/A   Clear
6:54 PM 57.0 °F 41.0 °F 55% 29.98 in 10.0 mi Calm Calm - N/A   Clear
7:54 PM 53.1 °F 41.0 °F 64% 30.00 in 10.0 mi SSE 3.5 mph - N/A   Clear
8:54 PM 50.0 °F 41.0 °F 71% 30.00 in 10.0 mi Calm Calm - N/A   Clear
9:54 PM 48.0 °F 42.1 °F 80% 30.01 in 10.0 mi Calm Calm - N/A   Clear
10:54 PM 45.0 °F 41.0 °F 86% 30.01 in 10.0 mi Calm Calm - N/A   Clear
11:54 PM 44.1 °F 39.9 °F 85% 30.01 in 10.0 mi Calm Calm - N/A   Clear